天目一号 12星 (TIANMU-1 12)

导读

TIANMU-1 12(天目一号12星)是中国研制的商业气象探测卫星,隶属于天目一号气象星座,于北京时间2023年12月25日,搭乘快舟一号甲运载火箭在酒泉卫星发射中心以“一箭四星”方式发射升空,顺利进入预定轨道。该卫星主要用于获取全球大气环境要素信息,可实现高精度掩星探测,助力全球全天候大气、海洋、电离层一体化探测,目前在轨稳定运行。

基本信息
目录编号:
58646
目录名称:
TIANMU-1 12
国际标识:
2023-205B
轨道中心:
EARTH
卫星名称:
天目一号 12星
卫星全名:
天目一号 12星 (TIANMU-1 12)
卫星状态:
在轨 (已飞行945 天)
发射日期:
2023-12-25 UTC
国别 :
中国 (CN)
星等 :
--
轨道信息
数据来源 国际轨道数据 AOE轨道数据
星历时间 2026-07-27T22:04:18+0800
9小时前
查看轨道信息
2026-07-22T08:00:00+0800
5天前
查看轨道信息
半长轴 6862.824km 6862.929km
偏心率 0.0007077 0.0006616
轨道倾角 97.343° 97.343°
近地点辐角 191.216° 211.538°
升交点赤经 229.258° 223.761°
平近点角 168.892° 59.190°
近地点 479.83km 480.251km
远地点 489.544km 489.333km
周期 94.301分钟 94.303分钟
每日圈数 15.270332 15.269983
详细信息
覆盖范围:
全球
运营商:
中国航天科工集团有限公司
运营商所在国:
中国
制造商(研发单位):
中国航天科工集团有限公司
制造商所在国:
中国
使用方式:
暂无
卫星简介
天目一号气象星座,是由中国航天科工集团落户西部(重庆)科学城西永微电园企业研制,主要用于获取全球大气环境要素信息,建成后可实现全球全天候海洋、大气层、电离层的立体化、一体化探测。该卫星仍在工作。
2D轨道图
3D轨道图
轨道高度分析图
轨道倾角分析图
轨道综合分析图
查看轨道综合分析图